Aérodrome :
LOGIN :

S'inscrire | Disclaimer

   EN    FR    IT 

 










Légende :    VFR   VFR Marginal   IFR   IFR Intensif   IFR Très Intensif
Visi : 
Plafond : 
>= 8 km
>= 3000ft
5 à 8 km
1000 à 3000 ft
1500m à 5 km
500 à 1000 ft
800 à 1500m
200 à 500 ft
< 800m
< 200 ft
Symboles :   Orages  Brouillard  Fortes neiges  Fortes précipitations  Vent > 20 kt
SIGMETs :   Divers  Orages  Givrage  Turbulence  Onde Orograph.  Cendres Volcan.







- Altitude de l'aérodrome : 2001 ft
- Code IATA : MAD


LEMD - Madrid

DERNIER METAR :
  • 181500Z 21013KT 130V240 CAVOK 30/M06 Q1013 NOSIG

METARs EXPIRÉS :
  • 181430Z 22015G26KT 190V250 CAVOK 30/M05 Q1013 NOSIG
  • 181400Z 23014KT CAVOK 30/M04 Q1013 NOSIG
  • 181330Z 20014KT CAVOK 31/M04 Q1014 NOSIG
  • 181300Z 20016KT CAVOK 30/M02 Q1014 NOSIG
  • 181230Z 16011KT CAVOK 29/M03 Q1014 NOSIG

TAF TAF LEMD
Valide du 18 à 12h jusqu'au 19 à 18h UTC


181100Z 1812/1918 22012KT CAVOK TX32/1816Z TN17/1905Z
TEMPO 1812/1820 22015G28KT
Pas de NOTAMs connus pour ce terrain.



MET'MAP, la Météo Aéronautique d'un coup d'oeil ! - Copyright ORBIFLY Décembre 2007 - Disclaimer

ORBIFLY MET'MAP TEAM :

Programmation & Développement : Alexandra Zaïnal
Conception & Développement : Baudouin d'Aumeries
Co-Programmation & Développement : Marc-Olivier Méhu
Soutien technique & logistique : Manuel Goepfert

Contact : metmap@orbifly.com




SOURCES & CREDITS :

   NOAA